Location: Bremen
(53.0793°N, 8.8017°E)
Time: 09:15:02
(UTC+01:00)

Explorer 7 - Pass Details

Date: 02 December 2021
Orbit: 483 x 674 km, 50.3° (Epoch: 17 January)

Event Time Altitude Azimuth Distance (km) Brightness Sun altitude
Rises 06:05:52 0° 195° (SSW) 2,800 10.4 -18.6°
Reaches altitude 10° 06:09:18 10° 167° (SSE) 1,855 9.8 -18.1°
Maximum altitude 06:11:11 13° 141° (SE) 1,654 10.0 -17.9°
Drops below altitude 10° 06:13:03 10° 113° (ESE) 1,806 10.7 -17.6°
Sets 06:16:18 0° 85° (E) 2,657 11.7 -17.1°
